Location: Conflandey
(47.7287°N, 6.0456°E)
Time: 01:48:56
(UTC+00:00)

CZ-2C R/B - Pass Details

Date: 24 October 2021
Orbit: 784 x 870 km, 98.2° (Epoch: 28 November)

Event Time Altitude Azimuth Distance (km) Brightness Sun altitude
Rises 18:39:07 0° 9° (N) 3,468 5.9 -22.1°
Reaches altitude 10° 18:41:36 10° 3° (N) 2,521 5.2 -22.6°
Maximum altitude 18:46:55 46° 292° (WNW) 1,140 3.7 -23.4°
Drops below altitude 10° 18:52:09 10° 221° (SW) 2,466 5.5 -24.3°
Sets 18:54:33 0° 215° (SW) 3,384 6.2 -24.7°
